{"data":{"norad_id":65939,"intl_designator":"2025-226B","name":"2025-226B","alt_names":[],"object_type":"PAYLOAD","status":"ACTIVE","operator":null,"country":"PRC","launch_date":"2025-10-11","launch_site_code":"YSLA","launch_vehicle":null,"mission":null,"orbit_class":"UNKNOWN","rcs_meters":null,"size_class":null,"mass_kg":null,"dimensions":null,"purposes":[],"wikipedia_slug":null,"has_3d_model":false,"image_url":null,"decayed_at":null,"tle_current":{"epoch":"2026-05-25T03:56:14.983584Z","epoch_age_seconds":71351,"freshness":"FRESH","line1":"1 65939U 25226B   26145.16406231  .00003938  00000+0  24339-3 0  9996","line2":"2 65939  97.6393 223.8464 0018201 209.7995 150.2199 15.10318578 34107","mean_motion":15.10318578,"eccentricity":0.0018201,"inclination_deg":97.6393,"raan_deg":223.8464,"arg_perigee_deg":209.7995,"mean_anomaly_deg":150.2199,"bstar":0.00024339,"rev_number":3410,"period_min":95.344122821218,"perigee_km":522.64463996006,"apogee_km":547.81066997708,"semimajor_km":6913.3646549686,"source":"CELESTRAK","updated_at":"2026-05-25T13:38:05.842996Z"}}}